Regional Weather Roundup
Issued by NWS

Home | Current Version | Previous Version | Text Only | Print | Product List | Glossary Off
Versions: 1 2 3 4 5 6 7 8 9 10 11 12 13 14 15 16 17 18 19 20 21 22 23 24 25 26 27 28 29 30 31 32 33 34 35 36 37 38 39 40 41 42 43 44 45 46 47 48 49 50

000
ASUS43 KMPX 281601
RWRMN
WEATHER ROUNDUP FOR MINNESOTA
NATIONAL WEATHER SERVICE TWIN CITIES/CHANHASSEN MN
1100 AM CDT THU MAY 28 2015


NOTE: "FAIR" INDICATES FEW OR NO CLOUDS BELOW 12,000 FEET WITH NO
SIGNIFICANT WEATHER AND/OR OBSTRUCTIONS TO VISIBILITY. N/A MEANS
CURRENT SKY AND/OR WEATHER CONDITIONS ARE NOT AVAILABLE.

MNZ060>063-068>070-281700-
   Twin Cities Metro

CITY           SKY/WX    TMP DP  RH WIND       PRES   REMARKS
TWIN CITIES    MOSUNNY   79  55  43 S8        30.05F
ST PAUL        SUNNY     79  58  48 S7        30.05F
CRYSTAL        SUNNY     81  54  39 S9        30.03F
BLAINE         PTSUNNY   81  55  41 S9        30.04F
LAKEVILLE      SUNNY     77  57  50 S9        30.06S
EDEN PRAIRIE   SUNNY     79  58  48 S10       30.04F
SOUTH ST PAUL  SUNNY     79  55  44 SW6       30.06S
LAKE ELMO      FAIR      77  59  53 S9        30.07S
$$
MNZ001>005-007-008-013>017-022>024-027-028-281700-
   Northwest Minnesota

CITY           SKY/WX    TMP DP  RH WIND       PRES   REMARKS
BEMIDJI        CLOUDY    60  55  85 E6        29.96F
HALLOCK        PTSUNNY   63  61  94 E12       29.88F
ROSEAU         CLOUDY    57  52  82 E9        29.91F
WARROAD        CLOUDY    55  52  88 E13       29.92F
THIEF RVR FALL CLOUDY    59  55  88 SE9       29.91S
CROOKSTON      PTSUNNY   63  63 100 SE13      29.89F
FOSSTON        DRIZZLE   61  57  88 CALM      29.94R
DETROIT LAKES  PTSUNNY   70  57  64 S9        29.94S
MOORHEAD       CLOUDY    66  61  82 SE3       29.90F
PARK RAPIDS    PTSUNNY   75  54  47 SE8       29.95F
MAHNOMEN       CLOUDY    64  57  79 SE6       29.92F
$$
MNZ006-009>011-018-025>026-281700-
   North Central Minnesota

CITY           SKY/WX    TMP DP  RH WIND       PRES   REMARKS
BAUDETTE       LGT RAIN  55  53  93 SE9       29.95F FOG
FLAG ISLAND    LGT RAIN  54  54 100 E8        29.92F
INTL FALLS     LGT RAIN  56  52  86 CALM      30.02F
WASKISH        LGT RAIN  57  55  94 CALM      29.96S
BIG FORK       CLOUDY    61  52  72 CALM      30.00F
LONGVILLE      PTSUNNY   70  54  56 S8        29.97F
GRAND RAPIDS   CLOUDY    63  48  59 SE13      30.00F
CRANE LAKE     LGT RAIN  57  52  82 CALM      30.04S
COOK           CLOUDY    57  50  77 SE5       30.02S
WALKER         FAIR      66  54  65 E7        29.96F
$$
MNZ012-019>021-037-281700-
   Northeast Minnesota

CITY           SKY/WX    TMP DP  RH WIND       PRES   REMARKS
DULUTH         PTSUNNY   49  43  80 SE16      30.08F
HIBBING        LGT RAIN  61  50  67 SE9       30.03F
EVELETH        CLOUDY    59  46  63 SE7       30.05S
DULUTH HARBOR  FOG       43  41  93 NE20      30.12F VSB 3/4
TWO HARBORS    CLOUDY    54  46  76 E13       30.08F
SILVER BAY     CLOUDY    48  45  87 NE8       30.10F
G MARAIS ARPRT SUNNY     57  41  54 E9G16     30.13S
$$
MNZ029>031-032-039>041-046>048-054>057-064-281700-
   West Central Minnesota

CITY           SKY/WX    TMP DP  RH WIND       PRES   REMARKS
FERGUS FALLS   PTSUNNY   75  61  60 SW24G30   29.94R
WHEATON        CLOUDY    70  55  60 S24G30    29.96S
MORRIS         PTSUNNY   75  55  50 SW23      29.97S
ALEXANDRIA     MOSUNNY   74  58  57 S16       30.00F
ELBOW LAKE     FAIR      75  58  54 S23G32    29.96S
WADENA         MOSUNNY   75  57  53 S16G22    29.95F
GLENWOOD       PTSUNNY   75  55  50 S21G26    30.00F
APPLETON       LGT RAIN  70  57  64 SW13      29.98F
BENSON         CLOUDY    73  52  46 W18G25    29.99S
ORTONVILLE     CLOUDY    68  59  73 S7        29.97F
MADISON        DRIZZLE   70  57  64 SW22G29   29.99F
WILLMAR        FAIR      81  50  34 S10G22    30.02F
$$
MNZ033>034-036-042>043-049>051-058-059-281700-
   Central Minnesota

CITY           SKY/WX    TMP DP  RH WIND       PRES   REMARKS
ST CLOUD       MOSUNNY   77  57  50 S13       30.01F
SAUK CENTRE    FAIR      76  57  51 S16       30.00F
PAYNESVILLE    PTSUNNY   74  53  46 SE12      30.02F
AITKIN         PTSUNNY   72  55  56 SE6       29.99F
PINE RIVER     PTSUNNY   73  57  56 S9        30.00F
BRAINERD       MOSUNNY   73  56  54 S9        29.99F
STAPLES        MOSUNNY   75  55  50 S15G21    29.98S
LONG PRAIRIE   HAZE      72  57  60 S12       30.01S VSB 1
LITTLE FALLS   MOSUNNY   77  52  41 SW10      30.01S
LITCHFIELD     MOSUNNY   81  55  41 SW7G16    30.03F
BUFFALO        MOSUNNY   77  56  47 S6        30.04F
MAPLE LAKE     MOSUNNY   78  59  51 S7        30.04S
$$
MNZ037-044-045-052-053-281700-
   East Central Minnesota

CITY           SKY/WX    TMP DP  RH WIND       PRES   REMARKS
PRINCETON      MOSUNNY   79  55  44 S10       30.03S
MORA           PTSUNNY   70  55  60 SE3       30.05F
CAMBRIDGE      PTSUNNY   81  59  47 SW9       30.02S
RUSH CITY      PTSUNNY   76  57  50 S6        30.04F
MOOSE LAKE     PTSUNNY   61  46  59 E5        30.04S
HINCKLEY       FAIR      72  59  64 S6        30.05S
CLOQUET        PTSUNNY   52  43  71 E10       30.07F
MCGREGOR       PTSUNNY   66  52  59 SE8       30.02F
$$
MNZ071>073-080-081-089-090-097-098-281700-
   Southwest Minnesota

CITY           SKY/WX    TMP DP  RH WIND       PRES   REMARKS
MONTEVIDEO     CLOUDY    75  54  46 W12G18    30.01R
GRANITE FALLS  PTSUNNY   79  50  36 S24G30    30.03S
CANBY          LGT RAIN  65  57  75 SW12G17   30.02S
MARSHALL       CLOUDY    75  52  43 SW23G30   30.01F
REDWOOD FALLS  PTSUNNY   80  53  39 SW18      30.02F
OLIVIA         PTSUNNY   77  48  36 S22G30    30.01F
PIPESTONE      CLOUDY    68  55  64 W8        30.05S
WINDOM         MOSUNNY   77  52  41 S18G25    30.05S
WORTHINGTON    MOSUNNY   79  50  36 S23G29    30.04F
JACKSON        MOSUNNY   79  54  41 S21       30.07S
TRACY          PTSUNNY   78  52  39 SW18      30.03S
SLAYTON        PTSUNNY   76  49  39 SW23G32   30.04F
$$
MNZ065>067-074>077-082>085-091>093-281700-
   South Central Minnesota

CITY           SKY/WX    TMP DP  RH WIND       PRES   REMARKS
MANKATO        SUNNY     77  55  47 S15       30.06F
NEW ULM        MOSUNNY   77  54  44 SW15G21   30.04S
FAIRMONT       SUNNY     77  54  44 S17G24    30.06F
GLENCOE        SUNNY     78  59  51 S13       30.04S
FARIBAULT      SUNNY     79  57  47 S10       30.08S
OWATONNA       MOSUNNY   79  55  44 S14       30.08S
WASECA         SUNNY     77  55  47 S15       30.09S
ALBERT LEA     MOSUNNY   75  57  53 S7        30.09S
$$
MNZ078>079-086>088-094>096-281700-
   Southeast Minnesota

CITY           SKY/WX    TMP DP  RH WIND       PRES   REMARKS
ROCHESTER      MOSUNNY   76  60  57 SW17      30.12F
RED WING       SUNNY     81  57  44 S3        30.07S
STANTON        SUNNY     79  57  47 SW10      30.06S
DODGE CENTER   MOSUNNY   75  57  53 S14       30.11S
WINONA         MOSUNNY   77  59  53 SW5       30.11S
PRESTON        MOSUNNY   75  59  57 S13       30.13F
$$
ABBREVIATIONS USED IN REMARKS
   TC - TEMPERATURES IN CELSIUS
  WCI - WIND CHILL INDEX
   HX - HEAT INDEX
  VSB - VISIBILITY
$$


USA.gov is the U.S. government's official web portal to all federal, state and local government web resources and services.